Unalakleet, AK

6:24 PM AKST on December 17, 2017 (GMT -0900)
Unalakleet

Weather History for PAUN - April, 2014

Change the Weather History Date:

Tuesday, April 22, 2014

  Actual Average Record
Temperature  
Mean Temperature 45 °F -  
Max Temperature 55 °F 30 °F 55 °F (2014)
Min Temperature 35 °F 13 °F -16 °F (1966)
Degree Days  
Heating Degree Days 20    
Moisture  
Dew Point 29 °F    
Average Humidity 53    
Maximum Humidity 75    
Minimum Humidity 36    
Precipitation  
Precipitation 0.00 in - - ()
Sea Level Pressure  
Sea Level Pressure 29.80 in    
Wind  
Wind Speed 8 mph (ESE)    
Max Wind Speed 15 mph    
Max Gust Speed 17 mph    
Visibility 10 miles    
Events      
Averages and records for this station are not official NWS values.
T = Trace of Precipitation, MM = Missing Value Source: NWS Daily Summary

Daily Weather History Graph

Daily Weather History Graph

Search for Another Location

Airport or City:

Trip Planner

Search our weather history database for the weather conditions in past years. The results will help you decide how hot, cold, wet, or windy it might be!

Date:

Astronomy

Apr. 22, 2014 Rise Set
Actual Time 6:47 AM AKDT 10:38 PM AKDT
Civil Twilight 5:47 AM AKDT 11:38 PM AKDT
Nautical Twilight 4:09 AM AKDT 1:20 AM AKDT
Astronomical Twilight Sun does not rise Sun does not rise
Moon 5:08 AM AKDT (4/22) 1:34 PM AKDT (4/22)
Length of Visible Light 17h 50m
Length of Day
15h 50m
Last Quarter, 44% of the Moon is Illuminated
Apr 22
Last Quarter
Apr 28
New
May 6
First Quarter
May 14
Full
May 21
Last Quarter

Hourly Weather History & Observations

Time (AKDT) Temp. Windchill Dew Point Humidity Pressure Visibility Wind Dir Wind Speed Gust Speed Precip Events Conditions
12:16 AM 42.8 °F 38.6 °F 28.4 °F 57% 29.81 in 10.0 mi East 6.9 mph - N/A   Overcast
12:36 AM 42.8 °F 38.6 °F 28.4 °F 57% 29.81 in 10.0 mi East 6.9 mph - N/A   Overcast
12:56 AM 42.8 °F 39.3 °F 28.4 °F 57% 29.81 in 10.0 mi East 5.8 mph - N/A   Overcast
1:16 AM 42.8 °F 38.6 °F 28.4 °F 57% 29.81 in 10.0 mi East 6.9 mph - N/A   Overcast
1:36 AM 42.8 °F 38.0 °F 30.2 °F 61% 29.82 in 10.0 mi East 8.1 mph - N/A   Overcast
1:56 AM 42.8 °F 38.6 °F 30.2 °F 61% 29.82 in 10.0 mi East 6.9 mph - N/A   Overcast
2:16 AM 42.8 °F 39.3 °F 28.4 °F 57% 29.82 in 10.0 mi East 5.8 mph - N/A   Overcast
2:36 AM 41.0 °F 35.8 °F 30.2 °F 65% 29.82 in 10.0 mi East 8.1 mph - N/A   Overcast
2:56 AM 41.0 °F 35.8 °F 30.2 °F 65% 29.82 in 10.0 mi East 8.1 mph - N/A   Overcast
3:16 AM 42.8 °F 36.6 °F 30.2 °F 61% 29.82 in 10.0 mi ENE 11.5 mph - N/A   Overcast
3:36 AM 42.8 °F 36.6 °F 28.4 °F 57% 29.82 in 10.0 mi ENE 11.5 mph - N/A   Overcast
3:56 AM 42.8 °F 37.0 °F 28.4 °F 57% 29.83 in 10.0 mi East 10.4 mph - N/A   Overcast
4:16 AM 39.2 °F 34.2 °F 28.4 °F 65% 29.83 in 10.0 mi East 6.9 mph - N/A   Scattered Clouds
4:36 AM 37.4 °F 28.9 °F 26.6 °F 65% 29.82 in 10.0 mi East 13.8 mph - N/A   Clear
4:56 AM 39.2 °F 32.0 °F 28.4 °F 65% 29.83 in 10.0 mi East 11.5 mph - N/A   Partly Cloudy
5:16 AM 37.4 °F 30.8 °F 28.4 °F 70% 29.83 in 10.0 mi East 9.2 mph - N/A   Partly Cloudy
5:36 AM 39.2 °F 32.0 °F 28.4 °F 65% 29.83 in 10.0 mi East 11.5 mph - N/A   Clear
5:56 AM 35.6 °F 29.2 °F 26.6 °F 70% 29.83 in 10.0 mi ESE 8.1 mph - N/A   Clear
6:16 AM 35.6 °F 29.2 °F 28.4 °F 75% 29.83 in 10.0 mi East 8.1 mph - N/A   Clear
6:36 AM 37.4 °F 31.4 °F 28.4 °F 70% 29.83 in 10.0 mi East 8.1 mph - N/A   Clear
6:56 AM 35.6 °F 28.6 °F 26.6 °F 70% 29.83 in 10.0 mi ESE 9.2 mph - N/A   Clear
7:16 AM 35.6 °F 29.2 °F 26.6 °F 70% 29.83 in 10.0 mi ESE 8.1 mph - N/A   Clear
7:36 AM 35.6 °F 28.6 °F 28.4 °F 75% 29.84 in 10.0 mi ESE 9.2 mph - N/A   Clear
7:56 AM 35.6 °F 29.9 °F 28.4 °F 75% 29.84 in 10.0 mi SE 6.9 mph - N/A   Clear
8:16 AM 35.6 °F 30.7 °F 28.4 °F 75% 29.84 in 10.0 mi ESE 5.8 mph - N/A   Clear
8:36 AM 35.6 °F 29.9 °F 28.4 °F 75% 29.84 in 10.0 mi ESE 6.9 mph - N/A   Clear
8:56 AM 37.4 °F 30.8 °F 28.4 °F 70% 29.84 in 10.0 mi ESE 9.2 mph - N/A   Clear
9:16 AM 39.2 °F 32.0 °F 30.2 °F 70% 29.84 in 10.0 mi ESE 11.5 mph - N/A   Clear
9:36 AM 41.0 °F 34.7 °F 30.2 °F 65% 29.83 in 10.0 mi East 10.4 mph - N/A   Clear
9:56 AM 44.6 °F 38.4 °F 30.2 °F 57% 29.83 in 10.0 mi East 12.7 mph - N/A   Clear
10:16 AM 44.6 °F 38.4 °F 30.2 °F 57% 29.83 in 10.0 mi East 12.7 mph - N/A   Clear
10:36 AM 46.4 °F 41.5 °F 30.2 °F 53% 29.83 in 10.0 mi East 10.4 mph - N/A   Clear
10:56 AM 46.4 °F 41.9 °F 30.2 °F 53% 29.83 in 10.0 mi ESE 9.2 mph - N/A   Clear
11:16 AM 48.2 °F - 30.2 °F 50% 29.83 in 10.0 mi East 9.2 mph - N/A   Clear
11:36 AM 48.2 °F - 30.2 °F 50% 29.83 in 10.0 mi ESE 9.2 mph - N/A   Clear
11:56 AM 48.2 °F - 30.2 °F 50% 29.83 in 10.0 mi East 11.5 mph 16.1 mph N/A   Clear
12:16 PM 50.0 °F - 32.0 °F 50% 29.82 in 10.0 mi East 15.0 mph - N/A   Clear
12:36 PM 50.0 °F - 32.0 °F 50% 29.82 in 10.0 mi ESE 10.4 mph - N/A   Clear
12:56 PM 50.0 °F - 30.2 °F 47% 29.82 in 10.0 mi SSW 6.9 mph - N/A   Clear
1:16 PM 50.0 °F - 30.2 °F 47% 29.82 in 10.0 mi SW 6.9 mph - N/A   Clear
1:36 PM 48.2 °F - 30.2 °F 50% 29.82 in 10.0 mi SW 4.6 mph - N/A   Clear
1:56 PM 51.8 °F - 30.2 °F 44% 29.81 in 10.0 mi SW 6.9 mph - N/A   Clear
2:16 PM 50.0 °F - 30.2 °F 47% 29.81 in 10.0 mi WSW 4.6 mph - N/A   Clear
2:36 PM 50.0 °F - 30.2 °F 47% 29.81 in 10.0 mi WSW 5.8 mph - N/A   Clear
2:56 PM 53.6 °F - 30.2 °F 41% 29.80 in 10.0 mi ESE 9.2 mph - N/A   Clear
3:16 PM 53.6 °F - 30.2 °F 41% 29.80 in 10.0 mi East 5.8 mph - N/A   Clear
3:36 PM 53.6 °F - 28.4 °F 38% 29.79 in 10.0 mi East 11.5 mph - N/A   Clear
3:56 PM 55.4 °F - 28.4 °F 36% 29.78 in 10.0 mi East 10.4 mph - N/A   Clear
4:16 PM 55.4 °F - 28.4 °F 36% 29.78 in 10.0 mi ESE 9.2 mph 16.1 mph N/A   Clear
4:36 PM 55.4 °F - 28.4 °F 36% 29.77 in 10.0 mi SE 11.5 mph 17.3 mph N/A   Clear
4:56 PM 55.4 °F - 28.4 °F 36% 29.77 in 10.0 mi East 15.0 mph - N/A   Clear
5:16 PM 55.4 °F - 28.4 °F 36% 29.76 in 10.0 mi SE 10.4 mph - N/A   Clear
5:36 PM 55.4 °F - 30.2 °F 38% 29.76 in 10.0 mi East 12.7 mph - N/A   Clear
5:56 PM 55.4 °F - 28.4 °F 36% 29.76 in 10.0 mi ESE 11.5 mph - N/A   Clear
6:16 PM 55.4 °F - 28.4 °F 36% 29.76 in 10.0 mi SE 9.2 mph - N/A   Clear
6:36 PM 55.4 °F - 28.4 °F 36% 29.75 in 10.0 mi East 11.5 mph - N/A   Clear
6:56 PM 55.4 °F - 30.2 °F 38% 29.75 in 10.0 mi East 12.7 mph - N/A   Partly Cloudy
7:16 PM 55.4 °F - 30.2 °F 38% 29.75 in 10.0 mi East 8.1 mph - N/A   Partly Cloudy
7:36 PM 53.6 °F - 28.4 °F 38% 29.75 in 10.0 mi ESE 10.4 mph - N/A   Partly Cloudy
7:56 PM 53.6 °F - 30.2 °F 41% 29.75 in 10.0 mi ESE 9.2 mph - N/A   Clear
8:16 PM 53.6 °F - 28.4 °F 38% 29.74 in 10.0 mi SE 8.1 mph - N/A   Clear
8:36 PM 53.6 °F - 28.4 °F 38% 29.74 in 10.0 mi ESE 6.9 mph - N/A   Clear
8:56 PM 51.8 °F - 28.4 °F 41% 29.74 in 10.0 mi SE 6.9 mph - N/A   Clear
9:16 PM 50.0 °F - 28.4 °F 43% 29.74 in 10.0 mi ESE 6.9 mph - N/A   Clear
9:36 PM 50.0 °F - 28.4 °F 43% 29.74 in 10.0 mi East 5.8 mph - N/A   Clear
9:56 PM 48.2 °F - 28.4 °F 46% 29.74 in 10.0 mi East 3.5 mph - N/A   Clear
10:16 PM 42.8 °F - 30.2 °F 61% 29.74 in 10.0 mi Calm Calm - N/A   Clear
10:36 PM 44.6 °F 39.7 °F 26.6 °F 49% 29.75 in 10.0 mi ENE 9.2 mph - N/A   Clear
10:56 PM 42.8 °F 37.0 °F 26.6 °F 53% 29.75 in 10.0 mi NE 10.4 mph - N/A   Clear
11:16 PM 42.8 °F 37.0 °F 26.6 °F 53% 29.75 in 10.0 mi ENE 10.4 mph - N/A   Clear
11:36 PM 41.0 °F 36.4 °F 26.6 °F 57% 29.75 in 10.0 mi ENE 6.9 mph - N/A   Clear
11:56 PM 42.8 °F 37.0 °F 26.6 °F 53% 29.75 in 10.0 mi ENE 10.4 mph - N/A   Clear